SCP
0 0 0 0 0 0 0 0 0 0 0 0 0 0 0 0 0 0 0 0 0 0 0 0 0 0 0 0 0 0 -0 -0
0 0 0 0 0 0 0 0 0 0 0 0 0 0 0 0 0 0 0 0 0 0 0 0 0 0 0 0 0 0 0 0
0 0 0 0 0 0 0 0 0 0 0 0 0 0 0 0 0 0 0 0 0 0 0 0 0 0 0 0 0 0 0 0
0 0 0 0 0 0 0 0 0 0 0 0 0 0 0 0 0 0 0 0 0 0 0 0 0 0 0 0 0 0 0 0
0 0 0 0 0 0 0 0 0 0 0 0 0 0 0 0 0 0 0 0 0 0 0 0 0 0 0 0 0 0 0 0
0 0 0 0 0 0 0 0 0 0 0 0 0 0 0 0 0 0 0 0 0 0 0 0 0 0 0 0 0 0 0 0
0 0 0 0 0 0 0 0 0 0 0 0 0 0 0 0 0 0 0 0 0 0 0 0 0 0 0 0 -0 0 -0 -0
0 0 0 0 0 0 0 0 0 0 0 0 0 0 0 0 0 0 0 0 0 0 0 0 0 0 0 -0 -0 0 0 0
0 0 0 0 0 0 0 0 0 0 0 0 0 0 0 0 0 0 0 0 0 0 0 0 0 0 -0 -0 -0 -0 -0 0
0 0 0 0 0 0 0 0 0 0 0 0 0 0 0 0 0 0 0 0 0 0 0 0 0 0 -0 -0 -0 -0 -0 0
0 0 0 0 0 0 0 0 0 0 0 0 0 0 0 0 0 0 0 0 0 0 0 0 0 -0 -0 -0 -0 -0 -0 -0
0 0 0 0 0 0 0 0 0 0 0 0 0 0 0 0 0 0 0 0 0 0 0 0 0 -0 -0 -0 -0 -0 -0 0
0 0 0 0 0 0 0 0 0 0 0 0 0 0 0 0 0 0 0 0 0 0 0 0 0 0 -0 0 0 0 0 0
0 0 0 0 0 0 0 0 0 0 0 0 0 0 0 0 0 0 0 0 0 0 0 0 0 0 0 0 0 0 0 0
0 0 0 0 0 0 0 0 0 0 0 0 -0 -0 0 0 0 0 0 0 0 0 0 0 0 0 0 0 0 0 0 0
0 0 0 0 0 0 0 0 0 0 0 0 0 0 0 0 0 0 0 0 0 0 0 0 0 0 0 0 0 0 0 0
0 0 0 0 0 0 0 0 0 0 0 0 0 0 0 0 0 0 0 0 0 0 0 0 0 0 0 0 0 0 0 0
0 0 0 0 0 0 0 0 0 0 0 0 0 0 0 0 0 0 0 0 0 0 0 0 0 0 0 0 0 0 0 0
0 0 0 0 0 0 0 0 0 0 0 0 0 0 0 0 0 0 0 0 0 0 0 0 0 0 0 0 0 0 0 0
0 0 0 0 0 0 0 0 0 0 0 0 0 0 0 0 0 0 0 0 0 0 0 0 0 0 0 0 0 0 0 0
Wind_Speed_500mb
34 34 31 33 38 34 32 24 18 17 26 18 12 16 27 35 34 40 44 36 39 41 44 42 37 34 33 27 21 23 27 31
33 35 31 33 31 34 29 23 21 22 21 11 12 23 30 32 34 41 34 31 34 42 43 40 32 31 26 26 25 23 27 30
44 47 41 38 37 30 24 24 25 20 20 16 18 26 26 29 36 34 33 26 32 37 36 34 30 28 28 29 29 30 30 23
41 41 46 39 32 25 23 23 26 24 25 20 22 21 29 27 37 32 27 25 28 32 35 35 34 29 25 25 26 25 21 16
37 40 36 29 25 21 23 23 25 29 26 24 23 25 30 27 35 31 31 29 31 33 34 37 36 37 33 28 21 17 11 10
27 27 25 22 21 24 24 25 29 31 30 29 28 28 32 31 33 30 32 31 33 36 38 39 40 37 36 24 13 12 8 10
16 15 17 22 25 22 24 26 34 36 33 31 30 29 33 33 34 31 32 33 30 34 37 40 44 42 30 10 4 4 5 2
16 14 18 17 17 23 31 31 35 42 34 31 30 31 36 35 35 35 32 34 32 35 39 41 45 36 13 10 8 7 9 11
16 18 19 20 24 34 41 42 42 33 33 36 39 39 40 37 36 39 34 33 31 37 42 42 41 26 7 9 13 12 10 7
29 29 30 34 33 42 48 50 44 38 35 42 43 41 41 40 41 40 35 34 35 38 42 40 35 12 10 11 13 15 13 6
38 41 44 46 44 50 58 57 52 50 45 47 44 43 45 44 45 42 38 36 37 38 37 37 33 15 17 17 12 13 19 13
47 50 54 58 69 57 66 63 72 64 59 57 53 48 48 47 47 46 45 41 37 37 34 32 29 21 27 23 21 16 20 21
30 44 46 43 46 46 36 52 47 59 66 72 69 56 52 51 49 47 48 44 41 35 34 33 32 27 30 32 28 23 24 24
21 26 32 27 26 24 25 33 39 43 50 53 60 77 65 56 54 52 49 50 45 47 44 43 40 34 27 40 35 31 30 27
27 29 28 31 35 39 37 38 43 47 45 45 51 57 67 75 78 79 64 52 49 49 52 49 48 44 37 34 45 44 44 42
30 31 33 33 35 36 40 42 47 50 44 44 43 41 43 55 70 75 83 88 67 56 57 54 41 40 38 42 43 52 58 59
38 39 43 47 49 52 54 53 52 55 57 55 55 57 56 51 56 55 63 79 92 86 66 63 61 59 56 55 58 60 61 65
46 52 54 56 58 59 64 67 69 69 66 63 60 61 63 62 61 55 52 53 70 83 94 85 73 71 73 72 71 69 72 65
49 53 59 60 51 57 66 70 69 64 61 55 57 62 61 60 61 64 67 66 66 50 73 91 91 83 81 82 79 78 79 75
54 61 64 56 41 54 62 63 62 59 56 57 63 65 68 69 68 69 72 73 83 83 87 58 46 66 81 86 87 87 83 83
Wind_Direction_500mb
191 193 204 213 213 219 222 228 250 295 308 310 310 319 321 322 322 324 324 329 335 333 335 335 333 335 337 327 304 291 277 280
202 208 217 213 215 214 222 245 273 290 321 289 308 317 316 324 325 325 328 327 335 334 334 332 344 0 0 344 329 312 297 295
220 223 216 209 208 218 238 267 281 294 304 277 306 316 320 329 331 329 329 329 329 334 338 330 332 342 354 342 338 325 315 308
208 205 207 211 220 244 265 280 293 291 305 276 304 307 326 324 334 330 336 339 344 342 345 343 342 333 334 343 330 320 315 303
203 205 210 222 244 267 285 300 302 296 305 281 291 301 312 311 328 322 326 326 333 337 338 341 338 331 327 337 338 330 307 277
202 210 223 245 264 282 294 300 298 291 286 283 282 298 303 299 317 321 323 318 327 331 333 336 338 337 324 327 342 331 316 286
218 224 261 279 293 299 292 290 286 283 285 285 284 289 300 292 305 314 319 312 324 330 336 334 334 334 319 307 80 2 322 292
235 278 282 278 282 279 279 286 281 279 289 289 290 289 291 293 300 308 307 308 317 321 328 331 332 330 307 109 118 94 119 99
248 284 297 296 281 272 277 284 282 299 287 283 284 287 286 294 291 307 303 299 309 321 320 328 334 324 191 142 164 152 156 103
268 272 290 294 281 270 276 280 298 291 284 280 285 291 288 291 288 302 300 291 298 310 317 322 333 309 200 187 178 182 195 170
276 270 280 287 283 278 274 286 296 290 281 281 289 289 286 287 282 293 291 286 292 301 307 316 329 270 234 219 223 220 207 197
272 276 287 294 289 291 287 299 289 287 279 279 284 283 289 287 280 285 288 284 284 294 291 304 311 282 241 240 235 216 204 211
300 301 321 317 314 312 304 308 308 296 293 284 278 281 284 286 281 281 284 282 275 276 280 290 293 297 250 245 245 245 219 210
315 324 320 335 343 348 337 329 333 329 327 310 285 280 279 284 281 281 282 281 277 262 268 276 281 276 267 240 241 236 224 222
10 8 360 354 346 341 337 336 338 335 331 338 323 303 285 284 284 282 279 286 274 265 259 269 271 262 259 246 241 241 236 234
10 8 6 359 355 349 346 335 338 339 331 327 325 322 316 317 297 284 280 278 275 271 256 253 251 248 257 260 247 239 239 239
5 5 6 1 0 357 350 343 337 336 334 333 332 328 320 309 309 321 296 281 275 272 265 250 247 251 257 251 248 249 243 239
5 12 7 1 355 351 348 345 341 336 332 331 329 324 320 317 313 306 311 312 291 281 269 264 256 252 251 250 250 253 250 246
12 8 5 2 358 347 347 348 348 348 345 344 340 335 330 323 318 310 306 301 301 315 282 270 269 264 255 252 254 254 251 246
5 4 2 359 358 351 350 354 0 356 352 352 352 351 349 346 337 328 322 313 299 298 297 297 288 267 266 263 257 254 247 244
Wind_Speed_850mb
34 34 31 33 38 34 32 24 18 17 26 18 12 16 27 35 34 40 44 36 39 41 44 42 37 34 33 27 21 23 27 31
33 35 31 33 31 34 29 23 21 22 21 11 12 23 30 32 34 41 34 31 34 42 43 40 32 31 26 26 25 23 27 30
44 47 41 38 37 30 24 24 25 20 20 16 18 26 26 29 36 34 33 26 32 37 36 34 30 28 28 29 29 30 30 23
41 41 46 39 32 25 23 23 26 24 25 20 22 21 29 27 37 32 27 25 28 32 35 35 34 29 25 25 26 25 21 16
37 40 36 29 25 21 23 23 25 29 26 24 23 25 30 27 35 31 31 29 31 33 34 37 36 37 33 28 21 17 11 10
27 27 25 22 21 24 24 25 29 31 30 29 28 28 32 31 33 30 32 31 33 36 38 39 40 37 36 24 13 12 8 10
16 15 17 22 25 22 24 26 34 36 33 31 30 29 33 33 34 31 32 33 30 34 37 40 44 42 30 10 4 4 5 2
16 14 18 17 17 23 31 31 35 42 34 31 30 31 36 35 35 35 32 34 32 35 39 41 45 36 13 10 8 7 9 11
16 18 19 20 24 34 41 42 42 33 33 36 39 39 40 37 36 39 34 33 31 37 42 42 41 26 7 9 13 12 10 7
29 29 30 34 33 42 48 50 44 38 35 42 43 41 41 40 41 40 35 34 35 38 42 40 35 12 10 11 13 15 13 6
38 41 44 46 44 50 58 57 52 50 45 47 44 43 45 44 45 42 38 36 37 38 37 37 33 15 17 17 12 13 19 13
47 50 54 58 69 57 66 63 72 64 59 57 53 48 48 47 47 46 45 41 37 37 34 32 29 21 27 23 21 16 20 21
30 44 46 43 46 46 36 52 47 59 66 72 69 56 52 51 49 47 48 44 41 35 34 33 32 27 30 32 28 23 24 24
21 26 32 27 26 24 25 33 39 43 50 53 60 77 65 56 54 52 49 50 45 47 44 43 40 34 27 40 35 31 30 27
27 29 28 31 35 39 37 38 43 47 45 45 51 57 67 75 78 79 64 52 49 49 52 49 48 44 37 34 45 44 44 42
30 31 33 33 35 36 40 42 47 50 44 44 43 41 43 55 70 75 83 88 67 56 57 54 41 40 38 42 43 52 58 59
38 39 43 47 49 52 54 53 52 55 57 55 55 57 56 51 56 55 63 79 92 86 66 63 61 59 56 55 58 60 61 65
46 52 54 56 58 59 64 67 69 69 66 63 60 61 63 62 61 55 52 53 70 83 94 85 73 71 73 72 71 69 72 65
49 53 59 60 51 57 66 70 69 64 61 55 57 62 61 60 61 64 67 66 66 50 73 91 91 83 81 82 79 78 79 75
54 61 64 56 41 54 62 63 62 59 56 57 63 65 68 69 68 69 72 73 83 83 87 58 46 66 81 86 87 87 83 83
Wind_Direction_850mb
191 193 204 213 213 219 222 228 250 295 308 310 310 319 321 322 322 324 324 329 335 333 335 335 333 335 337 327 304 291 277 280
202 208 217 213 215 214 222 245 273 290 321 289 308 317 316 324 325 325 328 327 335 334 334 332 344 0 0 344 329 312 297 295
220 223 216 209 208 218 238 267 281 294 304 277 306 316 320 329 331 329 329 329 329 334 338 330 332 342 354 342 338 325 315 308
208 205 207 211 220 244 265 280 293 291 305 276 304 307 326 324 334 330 336 339 344 342 345 343 342 333 334 343 330 320 315 303
203 205 210 222 244 267 285 300 302 296 305 281 291 301 312 311 328 322 326 326 333 337 338 341 338 331 327 337 338 330 307 277
202 210 223 245 264 282 294 300 298 291 286 283 282 298 303 299 317 321 323 318 327 331 333 336 338 337 324 327 342 331 316 286
218 224 261 279 293 299 292 290 286 283 285 285 284 289 300 292 305 314 319 312 324 330 336 334 334 334 319 307 80 2 322 292
235 278 282 278 282 279 279 286 281 279 289 289 290 289 291 293 300 308 307 308 317 321 328 331 332 330 307 109 118 94 119 99
248 284 297 296 281 272 277 284 282 299 287 283 284 287 286 294 291 307 303 299 309 321 320 328 334 324 191 142 164 152 156 103
268 272 290 294 281 270 276 280 298 291 284 280 285 291 288 291 288 302 300 291 298 310 317 322 333 309 200 187 178 182 195 170
276 270 280 287 283 278 274 286 296 290 281 281 289 289 286 287 282 293 291 286 292 301 307 316 329 270 234 219 223 220 207 197
272 276 287 294 289 291 287 299 289 287 279 279 284 283 289 287 280 285 288 284 284 294 291 304 311 282 241 240 235 216 204 211
300 301 321 317 314 312 304 308 308 296 293 284 278 281 284 286 281 281 284 282 275 276 280 290 293 297 250 245 245 245 219 210
315 324 320 335 343 348 337 329 333 329 327 310 285 280 279 284 281 281 282 281 277 262 268 276 281 276 267 240 241 236 224 222
10 8 360 354 346 341 337 336 338 335 331 338 323 303 285 284 284 282 279 286 274 265 259 269 271 262 259 246 241 241 236 234
10 8 6 359 355 349 346 335 338 339 331 327 325 322 316 317 297 284 280 278 275 271 256 253 251 248 257 260 247 239 239 239
5 5 6 1 0 357 350 343 337 336 334 333 332 328 320 309 309 321 296 281 275 272 265 250 247 251 257 251 248 249 243 239
5 12 7 1 355 351 348 345 341 336 332 331 329 324 320 317 313 306 311 312 291 281 269 264 256 252 251 250 250 253 250 246
12 8 5 2 358 347 347 348 348 348 345 344 340 335 330 323 318 310 306 301 301 315 282 270 269 264 255 252 254 254 251 246
5 4 2 359 358 351 350 354 0 356 352 352 352 351 349 346 337 328 322 313 299 298 297 297 288 267 266 263 257 254 247 244